AirNav   Phillips 66 Aviation Fuel
 
 1603 users online  

F72 Franklin Field Airport
Franklin, California, USA

GOING TO FRANKLIN?


FAA INFORMATION EFFECTIVE 13 SEPTEMBER 2018

Location

FAA Identifier: F72
Lat/Long: 38-18-14.4000N / 121-25-45.5000W
38-18.240000N / 121-25.758333W
38.3040000 / -121.4293056
(estimated)
Elevation: 23.1 ft. / 7.0 m (surveyed)
Variation: 16E (1985)
From city: 4 miles SE of FRANKLIN, CA
Time zone: UTC -7 (UTC -8 during Standard Time)
Zip code: 95758

Airport Operations

Airport use: Open to the public
Activation date: 07/1946
Control tower: no
ARTCC: OAKLAND CENTER
FSS: RANCHO MURIETA FLIGHT SERVICE STATION
NOTAMs facility: RIU (NOTAM-D service available)
Attendance: UNATNDD
Wind indicator: yes
Segmented circle: yes

Airport Communications

CTAF: 122.9
WX ASOS at SAC (13 nm N): PHONE 916-421-0923
WX AWOS-AV at O88 (15 nm SW): 127.075 (707-374-5396)
WX AWOS-3 at MHR (16 nm N): 118.325 (916-366-3371)

Nearby radio navigation aids

VOR radial/distance  VOR name  Freq  Var
SACr129/10.2SACRAMENTO VORTAC115.2017E
MCCr166/21.8MC CLELLAN VOR/DME109.2017E
LINr287/24.3LINDEN VOR/DME114.8017E
CCRr045/32.9CONCORD VOR/DME117.0017E

 
NDB name  Hdg/Dist  Freq  Var  ID
TRACY346/36.720315ETCY - -.-. -.--

Airport Services

Parking: tiedowns
Airframe service: NONE
Powerplant service: NONE
Bottled oxygen: NONE
Bulk oxygen: NONE

Runway Information

Runway 18/36

Dimensions: 3123 x 60 ft. / 952 x 18 m
Surface: asphalt, in good condition
Weight bearing capacity: 
Single wheel: 30.0
RUNWAY 18  RUNWAY 36
Latitude: 38-18.629595N38-18.130757N
Longitude: 121-25.668482W121-25.828122W
Elevation: 22.8 ft.20.6 ft.
Traffic pattern: leftright
Runway heading: 178 magnetic, 194 true358 magnetic, 014 true
Markings: basic, in good conditionbasic, in good condition
Touchdown point: yes, no lightsyes, no lights

Runway 9/27

Dimensions: 3031 x 60 ft. / 924 x 18 m
Surface: asphalt, in good condition
Weight bearing capacity: 
Single wheel: 30.0
RUNWAY 9  RUNWAY 27
Latitude: 38-18.157475N38-18.034537N
Longitude: 121-26.075107W121-25.461010W
Elevation: 19.3 ft.21.8 ft.
Gradient: 0.1%0.1%
Traffic pattern: rightleft
Runway heading: 088 magnetic, 104 true268 magnetic, 284 true
Markings: basic, in good conditionbasic, in good condition
Runway end identifier lights: no
Touchdown point: yes, no lightsyes, no lights

Airport Ownership and Management from official FAA records

Ownership: Publicly-owned
Owner: SACRAMENTO COUNTY
6151 FREEPORT BLVD
SACRAMENTO, CA 95822-3518
Phone 916-875-9035
Manager: JOHN PIRES
6151 FREEPORT BLVD, SUITE 177
SACRAMENTO, CA 95822-3518
Phone 916-875-9035
SACRAMENTO EXECUTIVE AIRPORT.

Airport Operational Statistics

Aircraft based on the field: 12
Single engine airplanes: 12
    
Aircraft operations: avg 89/day *
94% transient general aviation
6% local general aviation
* for 12-month period ending 31 December 2017

Additional Remarks

ALL RYS LTD TO 12,500 LBS GWT.
MONITOR 122.9 WITHIN 5 MILES. EXTSV STUDENT TRAINING IN AREA.
CALM WIND RY 18.
AVOID OVERFLIGHT OF DETENTION FACILITY ON EAST SIDE OF ARPT EXCP IN EMERGENCY.
CONDUCT HELICOPTER TRAINING N OF RY 09 & W OF RY 36.
ULTRALIGHTS ACTIVITY INVOF ARPT.
FOR CD CTC NORCAL APCH AT 916-361-6874.

Instrument Procedures

There are no published instrument procedures at F72.

Some nearby airports with instrument procedures:

1O3 - Lodi Airport (10 nm SE)
KSAC - Sacramento Executive Airport (13 nm N)
O88 - Rio Vista Municipal Airport (15 nm SW)
KMHR - Sacramento Mather Airport (16 nm N)
KEDU - University Airport (22 nm NW)
 
Loc | Ops | Rwys | IFR | FBO | Links
Com | Nav | Svcs | Stats | Notes


 
Area around F72 (Franklin Field Airport)
 
Road maps at: MapQuest Bing Google
 
Aerial photo
WARNING: Photo may not be current or correct
Aerial photo of F72 (Franklin Field Airport)
Do you have a better or more recent aerial photo of Franklin Field Airport that you would like to share? If so, please send us your photo.

 
Sectional chart

 
Airport distance calculator
Flying to Franklin Field Airport? Find the distance to fly.

From to F72

Sunrise and sunset
Times for 26-Sep-2018
 Local
(UTC-7)
 Zulu
(UTC)
Morning civil twilight06:3213:32
Sunrise06:5813:58
Sunset18:5601:56
Evening civil twilight19:2202:22

Current date and time
Zulu (UTC)  26-Sep-2018 15:39:50
Local (UTC-7)  26-Sep-2018 08:39:50
 
METAR
KSAC 
12nm N 
261453Z 00000KT 10SM CLR 13/11 A2998 RMK AO2 SLP150 T01330111 53014
KMHR 
15nm NE 
261445Z 03004KT 10SM SKC 13/06 A2996
KEDU 
22nm NW 
261510Z AUTO 02003KT 7SM CLR 14/09 A2999 RMK AO1
KMCC 
22nm N 
261515Z AUTO 01004KT 10SM CLR 15/07 A3000 RMK AO2
KSUU 
23nm W 
261458Z AUTO 00000KT 10SM CLR 12/09 A2996 RMK AO2 SLP152 T01220090 52015
TAF
KSAC 
12nm N 
261131Z 2612/2712 VRB05KT P6SM SKC
KMHR 
15nm NE 
261131Z 2612/2712 VRB05KT P6SM SKC
NOTAMs
Click for the latest NOTAMs
NOTAMs are issued by the DoD/FAA and will open in a separate window not controlled by AirNav.

 

 
 

Would you like to see your business listed on this page?

 If your business provides an interesting product or service to pilots, flight crews, aircraft, or users of the Franklin Field Airport, you should consider listing it here.  To start the listing process, click on the button below
 
Add a business
 

Other Pages about Franklin Field Airport

www.sacairports.org/franklin
 
Update a link
 
Copyright © AirNav, LLC. All rights reserved. Privacy Policy  Contact